Volver al catálogo

SL-12 R/B(2)

ActivoGEO
NORAD 18331·ROCKET BODY·🇷🇺 Russia

Lanzado Sep 3, 1987 desde Baikonur Cosmodrome

Loading…

TLE

ActualizadoSource: Space-Track

Época: Sep 14, 2026, 09:49 UTC

1 18331U 87073D   26257.40944084 -.00000135  00000-0  00000-0 0  9996
2 18331   9.4414 319.1251 0015942 163.5377 252.9322  1.01385818131404

Sigue SL-12 R/B(2) en tiempo real con AllMySat

Download on the App Store